Regional Weather Roundup
Issued by NWS Sterling, VA

Home | Current Version | Previous Version | Graphics & Text | Print | Product List | Glossary On
Versions: 1 2 3 4 5 6 7 8 9 10 11 12 13 14 15 16 17 18 19 20 21 22 23 24 25 26 27 28 29 30 31 32 33 34 35 36 37 38 39 40 41 42 43 44 45 46 47 48 49 50
000
ASUS41 KLWX 020410
RWRLWX

REGIONAL WEATHER ROUNDUP
NATIONAL WEATHER SERVICE BALTIMORE MD/WASHINGTON DC
1200 AM EDT THU JUL 02 2015

Note: "FAIR" indicates few or no clouds below 12,000 feet
with no significant weather and/or obstructions to visibility.
 TC=TEMPERATURE CELSIUS

 * =Non NWS site. Station does not report precipitation (e.g. rain,
    snow, etc.), thunder, or fog.

DCZ001-MDZ009-015-VAZ040>042-051-053>054-020500-
WASHINGTON METRO

CITY           SKY/WX    TMP DP  RH WIND       PRES   REMARKS
WASHINGTON NAT MOCLDY    74  70  87 S3        29.91S
DULLES         PTCLDY    69  63  81 CALM      29.91S
ANDREWS AFB    MOCLDY    70  69  99 SE2       29.91R
FT BELVOIR     PTCLDY    71  69  92 CALM      29.91S
QUANTICO       PTCLDY    74  70  87 NW3       29.91S
COLLEGE PARK*  MOCLDY    70  68  94 CALM      29.91R
LEESBURG*      PTCLDY    68  66  94 CALM      29.93S
MANASSAS*      CLOUDY    72  68  88 NE5       29.92R
GAITHERSBURG*  CLEAR     66  61  82 CALM      29.96R

$$

MDZ006>007-011-014-020500-
BALTIMORE METRO

CITY           SKY/WX    TMP DP  RH WIND       PRES   REMARKS
BWI AIRPORT    PTCLDY    70  65  84 CALM      29.90S
MD SCIENCE CTR   N/A     77  59  53 MISG      29.90S
MARTIN STATE   CLEAR     70  68  94 CALM      29.91S
ANNAPOLIS      CLOUDY    74  69  85 CALM      29.90S
FORT MEADE*    CLEAR     66  64  94 CALM      29.93S

$$

MDZ012-015-019>023-020500-
MARYLAND EASTERN SHORE

CITY           SKY/WX    TMP DP  RH WIND       PRES   REMARKS
OCEAN CITY     CLEAR     76  69  79 SW6       29.90F
SALISBURY      CLEAR     73  69  87 SW3       29.90S
BAY BRIDGE AP*   N/A     73  70  88 CALM      29.91R
CAMBRIDGE*     PTCLDY    73  68  83 E3        29.90S
EASTON*        LGT RAIN  72  72 100 NW7       29.95R

$$

MDZ017>025-020500-
SOUTHERN MARYLAND

CITY           SKY/WX    TMP DP  RH WIND       PRES   REMARKS
PATUXENT RIVER PTCLDY    75  69  81 NW6       29.90R
ST INIGOES     CLEAR     78  70  76 S8        29.88F
LEONARDTOWN*   PTCLDY    73  68  83 CALM      29.92R

$$

MDZ003>005-020500-
NORTH CENTRAL MARYLAND

CITY           SKY/WX    TMP DP  RH WIND       PRES   REMARKS
FREDERICK*     CLEAR     64  64 100 CALM      29.94S FOG
HAGERSTOWN APT CLEAR     69  59  70 SE3       29.93R
WESTMINSTER*   PTCLDY    68  61  77 CALM      29.93S

$$

MDZ501>502-020500-
WESTERN MARYLAND

CITY           SKY/WX    TMP DP  RH WIND       PRES   REMARKS
OAKLAND*       CLEAR     59 N/A N/A SW3       30.03R
CUMBERLAND*    CLEAR     64  61  88 CALM      29.98F

$$

VAZ025>031-020500-
SHENANDOAH VALLEY

CITY           SKY/WX    TMP DP  RH WIND       PRES   REMARKS
WINCHESTER*    PTCLDY    68  61  77 CALM      29.94S
FRONT ROYAL*   FAIR      64  63  94 CALM      29.93S
LURAY*         MOCLDY    70  64  83 CALM      29.95R
NEW MARKET*    MOCLDY    65  61  85 CALM      29.94R
STAUNTON*      CLOUDY    74  63  69 NE3       29.97R
WAYNESBORO*    FAIR      68  64  87 CALM      29.96S

$$

WVZ021-048>050-054>055-020500-
EASTERN WEST VIRGINIA PANHANDLE

CITY           SKY/WX    TMP DP  RH WIND       PRES   REMARKS
MARTINSBURG    PTCLDY    66  60  81 CALM      29.94R
PETERSBURG*    PTCLDY    63  58  86 CALM      29.97S

$$

VAZ036>039-050-020500-
CENTRAL FOOTHILLS

CITY           SKY/WX    TMP DP  RH WIND       PRES   REMARKS
CHARLOTTESVILL CLOUDY    72  66  81 N5        29.91F
CULPEPER*      MOCLDY    68  66  94 CALM      29.93S
ORANGE*        MOCLDY    72  70  94 CALM      29.93S
GORDONSVILLE*  CLOUDY    70  70 100 CALM      29.91S
WARRENTON*     FAIR      69  68  96 CALM      29.91S

$$

VAZ055>057-020500-
NORTH AND CENTRAL PIEDMONT

CITY           SKY/WX    TMP DP  RH WIND       PRES   REMARKS
FREDERICKSBRG* CLEAR     77  70  80 CALM      29.89S
STAFFORD*      CLEAR     73  65  76 CALM      29.95S

$$

NCZ024-NYZ072-PAZ021-071-VAZ022-071-020500-
OTHER REGIONAL OBSERVATIONS

CITY           SKY/WX    TMP DP  RH WIND       PRES   REMARKS
NEW YORK CITY  MOCLDY    77  58  51 W7        29.90R
PHILADELPHIA   MOCLDY    78  58  49 W7        29.90R
PITTSBURGH     MOCLDY    64  59  83 CALM      29.94F
ROANOKE        CLOUDY    74  66  76 W7        29.97S
RICHMOND       CLOUDY    76  69  79 S5        29.91F
RALEIGH        CLOUDY    76  68  76 SW7       29.95F

$$

ANZ530>537-020500-
MARINE OBSERVATIONS

STATION/POSITION TIME  TEMP    WIND        PRES
                       AIR SEA DIR/SP/G
                 (UTC) (F)     (DEG/KT/KT) (MB)
THOMAS PT LIGHT  0300   75 77  340/  7/  7 1012.5F
BALT KEY BRIDGE  0300   78     250/  2/  3 1012.3R
COVE POINT       0300   77      30/  6/ 11 1013.1R
LEWISETTA        0300   78 81  230/ 10/ 12 1012.2R
SOLOMONS ISLAND  0300      80                N/A
PINEY POINT      0300          240/ 12/ 13   N/A

$$



USA.gov is the U.S. government's official web portal to all federal, state and local government web resources and services.